Regional Weather Roundup
Issued by NWS

Home | Current Version | Previous Version | Text Only | Print | Product List | Glossary Off
Versions: 1 2 3 4 5 6 7 8 9 10 11 12 13 14 15 16 17 18 19 20 21 22 23 24 25 26 27 28 29 30 31 32 33 34 35 36 37 38 39 40 41 42 43 44 45 46 47 48 49 50

000
ASUS43 KMKX 241521
RWRWI

WISCONSIN REGIONAL WEATHER ROUNDUP
NATIONAL WEATHER SERVICE MILWAUKEE/SULLIVAN WI
1000 AM CDT SUN SEP 24 2017

NOTE: "FAIR" INDICATES FEW OR NO CLOUDS BELOW 12,000 FEET WITH NO
SIGNIFICANT WEATHER AND/OR OBSTRUCTIONS TO VISIBILITY.

WIZ001-002-006>008-014>016-023>028-241600-
NORTHWEST WISCONSIN

CITY           SKY/WX    TMP DP  RH WIND       PRES   REMARKS
SUPERIOR ARPT  FOG       63  63 100 NE5       29.94F VSB<1/4
ASHLAND        SUNNY     81  66  60 S9        29.96F HX  83
HAYWARD        SUNNY     76  64  66 S10       29.99S
SIREN          CLOUDY    72  65  80 S5        29.96S
CUMBERLAND     MOSUNNY   73  61  64 S13       29.99S
RICE LAKE      MOSUNNY   78  64  61 S10       30.01S HX  80
CHETEK         SUNNY     78  67  68 S8        30.00S HX  80
LADYSMITH      SUNNY     77  65  65 S8        30.03S
EAU CLAIRE     SUNNY     79  63  57 S13       29.99S HX  80
MENOMONIE      SUNNY     78  65  64 S7        30.00R HX  80
NEW RICHMOND   CLOUDY    75  63  66 S8        29.98S
OSCEOLA        CLOUDY    76  64  66 S10       29.99S
$$

WIZ003>005-009-010-017-018-241600-
NORTH CENTRAL WISCONSIN

CITY           SKY/WX    TMP DP  RH WIND       PRES   REMARKS
MANITOWISH WTR NOT AVBL
ARBOR VITAE    SUNNY     77  66  69 S10       30.06S
WOODRUFF       SUNNY     77  66  69 S10       30.06S
RHINELANDER    SUNNY     78  65  63 S9        30.08F HX  80
EAGLE RIVER    SUNNY     77  62  58 SW8       30.07S
LAND O LAKES   SUNNY     77  63  62 S8        30.09S
PHILLIPS       MOSUNNY   78  65  65 S7        30.03F HX  80
TOMAHAWK       SUNNY     77  65  66 CALM      30.07S
MEDFORD        SUNNY     76  64  65 S7        30.06S
MERRILL        SUNNY     78  67  67 S3        30.07S HX  80
$$

WIZ029-030-035-036-043>047-241600-
CENTRAL WISCONSIN

CITY           SKY/WX    TMP DP  RH WIND       PRES   REMARKS
WAUSAU         SUNNY     77  65  66 S6        30.05S
MOSINEE        SUNNY     75  66  73 S7        30.07S
MARSHFIELD     SUNNY     77  64  64 S8        30.05S
STEVENS POINT  SUNNY     79  65  62 S9        30.06F HX  80
WAUPACA        SUNNY     80  68  67 SE5       30.07F HX  83
WAUTOMA        SUNNY     78  68  71 S5        30.07S HX  80
WISC RAPIDS    SUNNY     80  66  62 SW7       30.06F HX  82
CAMP DOUGLAS   SUNNY     79  66  65 S8        30.04F HX  81
$$

WIZ011>013-019>022-031-037>040-048>050-241600-
NORTHEAST WISCONSIN

CITY           SKY/WX    TMP DP  RH WIND       PRES   REMARKS
ANTIGO         SUNNY     78  66  65 S6        30.09S HX  80
SHAWANO        SUNNY     80  67  66 SW3       30.07S HX  82
OCONTO         SUNNY     78  67  69 S3        30.06F HX  80
STURGEON BAY   SUNNY     80  69  69 SE8       30.08F HX  83
GREEN BAY      SUNNY     80  68  66 S6        30.07F HX  83
MANITOWOC      SUNNY     79  69  71 S6        30.09S HX  81
APPLETON       SUNNY     81  64  57 S6        30.07S HX  82
CLINTONVILLE   SUNNY     79  66  65 S6        30.07S HX  81
OSHKOSH        SUNNY     80  68  66 S7        30.07S HX  83
$$

WIZ032>034-041-042-053>061-241600-
SOUTHWEST WISCONSIN

CITY           SKY/WX    TMP DP  RH WIND       PRES   REMARKS
LA CROSSE      SUNNY     80  64  58 S12       30.01F HX  82
SPARTA         SUNNY     80  64  58 S7        30.04S HX  81
VIROQUA        SUNNY     79  64  60 S8        30.06S HX  81
BOSCOBEL       SUNNY     78  66  66 CALM      30.04F HX  80
PRAIRIE DU CHI SUNNY     77  64  64 SW3       30.03F
PLATTEVILLE    SUNNY     80  63  55 SE10      30.07S HX  82
$$

WIZ056-057-062-063-064-067-068-241600-
SOUTH CENTRAL WISCONSIN

CITY           SKY/WX    TMP DP  RH WIND       PRES   REMARKS
REEDSBURG      SUNNY     79  66  65 CALM      30.06S HX  81
BARABOO/DELLS  SUNNY     79  62  57 S6        30.07S HX  80
LONE ROCK      SUNNY     77  67  71 E5        30.05S
MINERAL POINT  SUNNY     81  64  57 S7        30.07S HX  82
MADISON        SUNNY     78  65  63 S8        30.07S HX  80
MIDDLETON      SUNNY     82  63  53 S8        30.08S HX  83
WATERTOWN      SUNNY     80  67  64 S5        30.08S HX  82
MONROE         SUNNY     79  61  53 S8        30.09S HX  80
JANESVILLE     SUNNY     81  63  54 S6        30.08S HX  82
$$

WIZ051-052-058>065-066-070>072-241600-
SOUTHEAST WISCONSIN

CITY           SKY/WX    TMP DP  RH WIND       PRES   REMARKS
MILWAUKEE      SUNNY     84  67  56 S7        30.09S HX  86
WAUKESHA       SUNNY     79  64  61 S6        30.11S HX  81
MILWAUKEE/TIMM SUNNY     81  61  50 S6        30.10S HX  81
RACINE         SUNNY     83  67  58 S6        30.11S HX  85
BURLINGTON     SUNNY     82  67  59 S5        30.10R HX  84
KENOSHA        SUNNY     84  64  50 S7        30.10S HX  85
FOND DU LAC    SUNNY     81  66  60 S7        30.08S HX  83
SHEBOYGAN      SUNNY     79  71  76 S6        30.09S HX  82
WEST BEND        N/A     79  66  65 S5        30.09S HX  81
JUNEAU         SUNNY     78  67  69 S6        30.10S HX  80
$$

LSZ147-162-241600-
LAKE SUPERIOR

STATION/POSITION TIME  TEMP    WIND        PRES    WAVE
                       AIR SEA DIR/SP/G            HT/PER
                 (UTC) (F)     (DEG/KT/KT) (MB)    (FT/S)
W MID LAKE BUOY  1450   59 55   60/  6/  6 1014.2F   1/ 3
DEVILS ISLAND    1500   64     100/  6/  7 1014.1F
SAXON HARBOR     1430   79     190/  5/ 10 1014.2S
$$

LMZ867-665-643>646-241600-
LAKE MICHIGAN

STATION/POSITION TIME  TEMP    WIND        PRES    WAVE
                       AIR SEA DIR/SP/G            HT/PER
                 (UTC) (F)     (DEG/KT/KT) (MB)    (FT/S)
S GREEN BAY BUOY 1500   72 69  200/  4/  6 1018.0
N MID LAKE BUOY  1450   69 67  190/ 10/ 12 1019.0F   1
NORTHPORT PIER   1440   75     150/  8/ 11 1018.3S
KEWAUNEE LAKESHO 1454   66     160/  8/  9 1017.9F
SHEBOYGAN LAKESH 1500   71     160/ 11/ 12 1018.3F
PORT WASHINGTON  1430   74     120/  2/  3 1019.6S
ATWATER BUOY     1409   67 65  170/  6/  6 1019.2S
MILWAUKEE LAKESH 1500   71     180/  1/  2   N/A
S MID LAKE BUOY  1450   72 71  180/  8/ 10 1019.5R   1/ 3
KENOSHA   LAKESH 1500   74     170/  6/  8 1018.6
$$

TC  - TEMPERATURE IN CELSIUS
VSB - VISIBILITY IN STATUTE MILES
WCI - WIND CHILL INDEX
HX  - HEAT INDEX




USA.gov is the U.S. government's official web portal to all federal, state and local government web resources and services.